You are here:

home

Questo sito é stato creato esclusivamente per valorizzare il lavoro svolto dall' intero
155° Gruppo E.T.S. del' Aeronautica Militare e non ha nessun fine commerciale ne di lucro. 
Pertanto, l' utilizzo delle foto é consentito solo per uso PRIVATO.

 

 
In alto

LIMS - Piacenza, San Damiano

[source: ADDS]
METAR
LIMS 250455Z 24002KT CAVOK 05/05 Q1017 RMK FEW FEW200 VIS MIN 9999 WIND THR30 00000KT BLU =
TAF
TAF LIMS 250500Z 2506/2515 VRB04KT 9999 FEW040 SCT070 BECMG 2507/2509 09010KT =
In alto
WEB MASTER
Paolo "paolopaso" Pasotti
______________________________________
Last Update: 25/02/2011
_____________________________________________________________________________________________________________
© 2010 / 2011 - Tutti i diritti riservati
 
 
In alto